Year,Month,Day,Hour,Minute,Value (Times are PST for temperature in C)
2017,06,24,00,00,17.80
2017,06,24,00,01,17.80
2017,06,24,00,02,17.80
2017,06,24,00,03,17.70
2017,06,24,00,04,17.70
2017,06,24,00,05,17.60
2017,06,24,00,06,17.60
2017,06,24,00,07,17.60
2017,06,24,00,08,17.50
2017,06,24,00,09,17.50
2017,06,24,00,10,17.50
2017,06,24,00,11,17.40
2017,06,24,00,12,17.40
2017,06,24,00,13,17.40
2017,06,24,00,14,17.40
2017,06,24,00,15,17.40
2017,06,24,00,16,17.40
2017,06,24,00,17,17.30
2017,06,24,00,18,17.30
2017,06,24,00,19,17.40
2017,06,24,00,20,17.40
2017,06,24,00,21,17.40
2017,06,24,00,22,17.40
2017,06,24,00,23,17.50
2017,06,24,00,24,17.50
2017,06,24,00,25,17.50
2017,06,24,00,26,17.60
2017,06,24,00,27,17.60
2017,06,24,00,28,17.60
2017,06,24,00,29,17.60
2017,06,24,00,30,17.60
2017,06,24,00,31,17.60
2017,06,24,00,32,17.60
2017,06,24,00,33,17.60
2017,06,24,00,34,17.60
2017,06,24,00,35,17.60
2017,06,24,00,36,17.60
2017,06,24,00,37,17.60
2017,06,24,00,38,17.60
2017,06,24,00,39,17.60
2017,06,24,00,40,17.50
2017,06,24,00,41,17.50
2017,06,24,00,42,17.40
2017,06,24,00,43,17.40
2017,06,24,00,44,17.30
2017,06,24,00,45,17.30
2017,06,24,00,46,17.30
2017,06,24,00,47,17.20
2017,06,24,00,48,17.20
2017,06,24,00,49,17.20
2017,06,24,00,50,17.20
2017,06,24,00,51,17.10
2017,06,24,00,52,17.10
2017,06,24,00,53,17.10
2017,06,24,00,54,17.10
2017,06,24,00,55,17.10
2017,06,24,00,56,17.10
2017,06,24,00,57,17.10
2017,06,24,00,58,17.10
2017,06,24,00,59,17.10
2017,06,24,01,00,17.10
2017,06,24,01,01,17.10
2017,06,24,01,02,17.10
2017,06,24,01,03,17.10
2017,06,24,01,04,17.10
2017,06,24,01,05,17.10
2017,06,24,01,06,17.10
2017,06,24,01,07,17.10
2017,06,24,01,08,17.10
2017,06,24,01,09,17.10
2017,06,24,01,10,17.10
2017,06,24,01,11,17.00
2017,06,24,01,12,17.00
2017,06,24,01,13,16.90
2017,06,24,01,14,16.90
2017,06,24,01,15,16.90
2017,06,24,01,16,16.90
2017,06,24,01,17,16.80
2017,06,24,01,18,16.80
2017,06,24,01,19,16.80
2017,06,24,01,20,16.80
2017,06,24,01,21,16.80
2017,06,24,01,22,16.80
2017,06,24,01,23,16.80
2017,06,24,01,24,16.80
2017,06,24,01,25,16.80
2017,06,24,01,26,16.80
2017,06,24,01,27,16.80
2017,06,24,01,28,16.90
2017,06,24,01,29,16.80
2017,06,24,01,30,16.80
2017,06,24,01,31,16.80
2017,06,24,01,32,16.80
2017,06,24,01,33,16.80
2017,06,24,01,34,16.80
2017,06,24,01,35,16.80
2017,06,24,01,36,16.80
2017,06,24,01,37,16.80
2017,06,24,01,38,16.80
2017,06,24,01,39,16.80
2017,06,24,01,40,16.70
2017,06,24,01,41,16.70
2017,06,24,01,42,16.70
2017,06,24,01,43,16.60
2017,06,24,01,44,16.60
2017,06,24,01,45,16.50
2017,06,24,01,46,16.50
2017,06,24,01,47,16.40
2017,06,24,01,48,16.30
2017,06,24,01,49,16.30
2017,06,24,01,50,16.20
2017,06,24,01,51,16.20
2017,06,24,01,52,16.20
2017,06,24,01,53,16.20
2017,06,24,01,54,16.20
2017,06,24,01,55,16.20
2017,06,24,01,56,16.20
2017,06,24,01,57,16.20
2017,06,24,01,58,16.10
2017,06,24,01,59,16.10
2017,06,24,02,00,16.10
2017,06,24,02,01,16.10
2017,06,24,02,02,16.00
2017,06,24,02,03,16.00
2017,06,24,02,04,16.00
2017,06,24,02,05,15.90
2017,06,24,02,06,15.90
2017,06,24,02,07,15.90
2017,06,24,02,08,15.90
2017,06,24,02,09,15.90
2017,06,24,02,10,15.90
2017,06,24,02,11,15.90
2017,06,24,02,12,15.90
2017,06,24,02,13,15.80
2017,06,24,02,14,15.80
2017,06,24,02,15,15.80
2017,06,24,02,16,15.80
2017,06,24,02,17,15.80
2017,06,24,02,18,15.80
2017,06,24,02,19,15.80
2017,06,24,02,20,15.80
2017,06,24,02,21,15.80
2017,06,24,02,22,15.70
2017,06,24,02,23,15.70
2017,06,24,02,24,15.60
2017,06,24,02,25,15.60
2017,06,24,02,26,15.50
2017,06,24,02,27,15.50
2017,06,24,02,28,15.40
2017,06,24,02,29,15.40
2017,06,24,02,30,15.30
2017,06,24,02,31,15.30
2017,06,24,02,32,15.30
2017,06,24,02,33,15.30
2017,06,24,02,34,15.30
2017,06,24,02,35,15.30
2017,06,24,02,36,15.30
2017,06,24,02,37,15.30
2017,06,24,02,38,15.40
2017,06,24,02,39,15.40
2017,06,24,02,40,15.30
2017,06,24,02,41,15.30
2017,06,24,02,42,15.30
2017,06,24,02,43,15.30
2017,06,24,02,44,15.20
2017,06,24,02,45,15.20
2017,06,24,02,46,15.20
2017,06,24,02,47,15.10
2017,06,24,02,48,15.10
2017,06,24,02,49,15.10
2017,06,24,02,50,15.00
2017,06,24,02,51,15.00
2017,06,24,02,52,14.90
2017,06,24,02,53,14.90
2017,06,24,02,54,14.90
2017,06,24,02,55,14.80
2017,06,24,02,56,14.80
2017,06,24,02,57,14.80
2017,06,24,02,58,14.80
2017,06,24,02,59,14.80
2017,06,24,03,00,14.70
2017,06,24,03,01,14.70
2017,06,24,03,02,14.70
2017,06,24,03,03,14.70
2017,06,24,03,04,14.70
2017,06,24,03,05,14.70
2017,06,24,03,06,14.70
2017,06,24,03,07,14.70
2017,06,24,03,08,14.60
2017,06,24,03,09,14.60
2017,06,24,03,10,14.60
2017,06,24,03,11,14.60
2017,06,24,03,12,14.60
2017,06,24,03,13,14.60
2017,06,24,03,14,14.70
2017,06,24,03,15,14.70
2017,06,24,03,16,14.70
2017,06,24,03,17,14.70
2017,06,24,03,18,14.80
2017,06,24,03,19,14.80
2017,06,24,03,20,14.80
2017,06,24,03,21,14.80
2017,06,24,03,22,14.80
2017,06,24,03,23,14.80
2017,06,24,03,24,14.80
2017,06,24,03,25,14.80
2017,06,24,03,26,14.80
2017,06,24,03,27,14.70
2017,06,24,03,28,14.70
2017,06,24,03,29,14.70
2017,06,24,03,30,14.70
2017,06,24,03,31,14.70
2017,06,24,03,32,14.70
2017,06,24,03,33,14.70
2017,06,24,03,34,14.70
2017,06,24,03,35,14.70
2017,06,24,03,36,14.70
2017,06,24,03,37,14.80
2017,06,24,03,38,14.80
2017,06,24,03,39,14.80
2017,06,24,03,40,14.80
2017,06,24,03,41,14.80
2017,06,24,03,42,14.80
2017,06,24,03,43,14.90
2017,06,24,03,44,14.90
2017,06,24,03,45,14.90
2017,06,24,03,46,14.90
2017,06,24,03,47,14.90
2017,06,24,03,48,14.90
2017,06,24,03,49,14.90
2017,06,24,03,50,14.90
2017,06,24,03,51,14.90
2017,06,24,03,52,14.90
2017,06,24,03,53,14.90
2017,06,24,03,54,14.80
2017,06,24,03,55,14.80
2017,06,24,03,56,14.80
2017,06,24,03,57,14.80
2017,06,24,03,58,14.80
2017,06,24,03,59,14.80
2017,06,24,04,00,14.70
2017,06,24,04,01,14.70
2017,06,24,04,02,14.70
2017,06,24,04,03,14.70
2017,06,24,04,04,14.70
2017,06,24,04,05,14.70
2017,06,24,04,06,14.70
2017,06,24,04,07,14.70
2017,06,24,04,08,14.70
2017,06,24,04,09,14.70
2017,06,24,04,10,14.70
2017,06,24,04,11,14.70
2017,06,24,04,12,14.70
2017,06,24,04,13,14.70
2017,06,24,04,14,14.70
2017,06,24,04,15,14.70
2017,06,24,04,16,14.70
2017,06,24,04,17,14.70
2017,06,24,04,18,14.70
2017,06,24,04,19,14.80
2017,06,24,04,20,14.80
2017,06,24,04,21,14.80
2017,06,24,04,22,14.80
2017,06,24,04,23,14.80
2017,06,24,04,24,14.70
2017,06,24,04,25,14.70
2017,06,24,04,26,14.70
2017,06,24,04,27,14.70
2017,06,24,04,28,14.60
2017,06,24,04,29,14.60
2017,06,24,04,30,14.50
2017,06,24,04,31,14.50
2017,06,24,04,32,14.50
2017,06,24,04,33,14.50
2017,06,24,04,34,14.50
2017,06,24,04,35,14.50
2017,06,24,04,36,14.50
2017,06,24,04,37,14.50
2017,06,24,04,38,14.50
2017,06,24,04,39,14.50
2017,06,24,04,40,14.50
2017,06,24,04,41,14.50
2017,06,24,04,42,14.50
2017,06,24,04,43,14.60
2017,06,24,04,44,14.60
2017,06,24,04,45,14.60
2017,06,24,04,46,14.60
2017,06,24,04,47,14.60
2017,06,24,04,48,14.50
2017,06,24,04,49,14.50
2017,06,24,04,50,14.50
2017,06,24,04,51,14.50
2017,06,24,04,52,14.50
2017,06,24,04,53,14.50
2017,06,24,04,54,14.50
2017,06,24,04,55,14.50
2017,06,24,04,56,14.50
2017,06,24,04,57,14.50
2017,06,24,04,58,14.50
2017,06,24,04,59,14.50
2017,06,24,05,00,14.50
2017,06,24,05,01,14.50
2017,06,24,05,02,14.50
2017,06,24,05,03,14.50
2017,06,24,05,04,14.50
2017,06,24,05,05,14.50
2017,06,24,05,06,14.50
2017,06,24,05,07,14.50
2017,06,24,05,08,14.40
2017,06,24,05,09,14.40
2017,06,24,05,10,14.40
2017,06,24,05,11,14.40
2017,06,24,05,12,14.30
2017,06,24,05,13,14.30
2017,06,24,05,14,14.30
2017,06,24,05,15,14.30
2017,06,24,05,16,14.30
2017,06,24,05,17,14.20
2017,06,24,05,18,14.20
2017,06,24,05,19,14.20
2017,06,24,05,20,14.10
2017,06,24,05,21,14.10
2017,06,24,05,22,14.10
2017,06,24,05,23,14.10
2017,06,24,05,24,14.10
2017,06,24,05,25,14.10
2017,06,24,05,26,14.10
2017,06,24,05,27,14.10
2017,06,24,05,28,14.10
2017,06,24,05,29,14.10
2017,06,24,05,30,14.10
2017,06,24,05,31,14.10
2017,06,24,05,32,14.00
2017,06,24,05,33,13.90
2017,06,24,05,34,13.90
2017,06,24,05,35,13.80
2017,06,24,05,36,13.80
2017,06,24,05,37,13.70
2017,06,24,05,38,13.70
2017,06,24,05,39,13.70
2017,06,24,05,40,13.80
2017,06,24,05,41,13.80
2017,06,24,05,42,13.80
2017,06,24,05,43,13.80
2017,06,24,05,44,13.80
2017,06,24,05,45,13.80
2017,06,24,05,46,13.70
2017,06,24,05,47,13.70
2017,06,24,05,48,13.70
2017,06,24,05,49,13.70
2017,06,24,05,50,13.60
2017,06,24,05,51,13.60
2017,06,24,05,52,13.60
2017,06,24,05,53,13.60
2017,06,24,05,54,13.70
2017,06,24,05,55,13.70
2017,06,24,05,56,13.70
2017,06,24,05,57,13.80
2017,06,24,05,58,13.90
2017,06,24,05,59,13.90
2017,06,24,06,00,14.00
2017,06,24,06,01,14.10
2017,06,24,06,02,14.10
2017,06,24,06,03,14.20
2017,06,24,06,04,14.20
2017,06,24,06,05,14.30
2017,06,24,06,06,14.40
2017,06,24,06,07,14.40
2017,06,24,06,08,14.40
2017,06,24,06,09,14.40
2017,06,24,06,10,14.30
2017,06,24,06,11,14.30
2017,06,24,06,12,14.30
2017,06,24,06,13,14.30
2017,06,24,06,14,14.30
2017,06,24,06,15,14.20
2017,06,24,06,16,14.20
2017,06,24,06,17,14.20
2017,06,24,06,18,14.20
2017,06,24,06,19,14.10
2017,06,24,06,20,14.10
2017,06,24,06,21,14.10
2017,06,24,06,22,14.10
2017,06,24,06,23,14.10
2017,06,24,06,24,14.10
2017,06,24,06,25,14.10
2017,06,24,06,26,14.10
2017,06,24,06,27,14.20
2017,06,24,06,28,14.20
2017,06,24,06,29,14.20
2017,06,24,06,30,14.20
2017,06,24,06,31,14.30
2017,06,24,06,32,14.30
2017,06,24,06,33,14.30
2017,06,24,06,34,14.30
2017,06,24,06,35,14.40
2017,06,24,06,36,14.40
2017,06,24,06,37,14.50
2017,06,24,06,38,14.50
2017,06,24,06,39,14.60
2017,06,24,06,40,14.60
2017,06,24,06,41,14.70
2017,06,24,06,42,14.80
2017,06,24,06,43,14.80
2017,06,24,06,44,14.80
2017,06,24,06,45,14.90
2017,06,24,06,46,14.90
2017,06,24,06,47,14.90
2017,06,24,06,48,14.90
2017,06,24,06,49,14.90
2017,06,24,06,50,14.90
2017,06,24,06,51,14.90
2017,06,24,06,52,14.90
2017,06,24,06,53,14.80
2017,06,24,06,54,14.80
2017,06,24,06,55,14.80
2017,06,24,06,56,14.80
2017,06,24,06,57,14.80
2017,06,24,06,58,14.80
2017,06,24,06,59,14.80
2017,06,24,07,00,14.80
2017,06,24,07,01,14.80
2017,06,24,07,02,14.80
2017,06,24,07,03,14.80
2017,06,24,07,04,14.80
2017,06,24,07,05,14.80
2017,06,24,07,06,14.80
2017,06,24,07,07,14.80
2017,06,24,07,08,14.80
2017,06,24,07,09,14.80
2017,06,24,07,10,14.80
2017,06,24,07,11,14.80
2017,06,24,07,12,14.90
2017,06,24,07,13,14.90
2017,06,24,07,14,14.90
2017,06,24,07,15,14.90
2017,06,24,07,16,15.00
2017,06,24,07,17,15.00
2017,06,24,07,18,15.00
2017,06,24,07,19,15.10
2017,06,24,07,20,15.10
2017,06,24,07,21,15.10
2017,06,24,07,22,15.20
2017,06,24,07,23,15.20
2017,06,24,07,24,15.30
2017,06,24,07,25,15.30
2017,06,24,07,26,15.30
2017,06,24,07,27,15.30
2017,06,24,07,28,15.30
2017,06,24,07,29,15.40
2017,06,24,07,30,15.40
2017,06,24,07,31,15.40
2017,06,24,07,32,15.50
2017,06,24,07,33,15.50
2017,06,24,07,34,15.60
2017,06,24,07,35,15.60
2017,06,24,07,36,15.70
2017,06,24,07,37,15.70
2017,06,24,07,38,15.70
2017,06,24,07,39,15.80
2017,06,24,07,40,15.80
2017,06,24,07,41,15.80
2017,06,24,07,42,15.90
2017,06,24,07,43,15.90
2017,06,24,07,44,15.90
2017,06,24,07,45,16.00
2017,06,24,07,46,16.00
2017,06,24,07,47,16.10
2017,06,24,07,48,16.20
2017,06,24,07,49,16.20
2017,06,24,07,50,16.20
2017,06,24,07,51,16.30
2017,06,24,07,52,16.30
2017,06,24,07,53,16.30
2017,06,24,07,54,16.40
2017,06,24,07,55,16.50
2017,06,24,07,56,16.50
2017,06,24,07,57,16.60
2017,06,24,07,58,16.70
2017,06,24,07,59,16.80
2017,06,24,08,00,16.90
2017,06,24,08,01,16.90
2017,06,24,08,02,17.00
2017,06,24,08,03,17.10
2017,06,24,08,04,17.10
2017,06,24,08,05,17.20
2017,06,24,08,06,17.20
2017,06,24,08,07,17.30
2017,06,24,08,08,17.30
2017,06,24,08,09,17.40
2017,06,24,08,10,17.50
2017,06,24,08,11,17.50
2017,06,24,08,12,17.60
2017,06,24,08,13,17.70
2017,06,24,08,14,17.80
2017,06,24,08,15,17.90
2017,06,24,08,16,18.00
2017,06,24,08,17,18.10
2017,06,24,08,18,18.20
2017,06,24,08,19,18.30
2017,06,24,08,20,18.40
2017,06,24,08,21,18.50
2017,06,24,08,22,18.60
2017,06,24,08,23,18.60
2017,06,24,08,24,18.70
2017,06,24,08,25,18.80
2017,06,24,08,26,18.90
2017,06,24,08,27,18.90
2017,06,24,08,28,19.00
2017,06,24,08,29,19.10
2017,06,24,08,30,19.20
2017,06,24,08,31,19.30
2017,06,24,08,32,19.40
2017,06,24,08,33,19.50
2017,06,24,08,34,19.50
2017,06,24,08,35,19.60
2017,06,24,08,36,19.70
2017,06,24,08,37,19.70
2017,06,24,08,38,19.80
2017,06,24,08,39,19.90
2017,06,24,08,40,20.00
2017,06,24,08,41,20.00
2017,06,24,08,42,20.10
2017,06,24,08,43,20.20
2017,06,24,08,44,20.20
2017,06,24,08,45,20.20
2017,06,24,08,46,20.30
2017,06,24,08,47,20.30
2017,06,24,08,48,20.30
2017,06,24,08,49,20.40
2017,06,24,08,50,20.40
2017,06,24,08,51,20.40
2017,06,24,08,52,20.50
2017,06,24,08,53,20.60
2017,06,24,08,54,20.60
2017,06,24,08,55,20.70
2017,06,24,08,56,20.70
2017,06,24,08,57,20.80
2017,06,24,08,58,20.80
2017,06,24,08,59,20.80
2017,06,24,09,00,20.90
2017,06,24,09,01,20.90
2017,06,24,09,02,20.90
2017,06,24,09,03,21.00
2017,06,24,09,04,21.10
2017,06,24,09,05,21.10
2017,06,24,09,06,21.20
2017,06,24,09,07,21.20
2017,06,24,09,08,21.30
2017,06,24,09,09,21.30
2017,06,24,09,10,21.30
2017,06,24,09,11,21.30
2017,06,24,09,12,21.30
2017,06,24,09,13,21.40
2017,06,24,09,14,21.40
2017,06,24,09,15,21.40
2017,06,24,09,16,21.50
2017,06,24,09,17,21.50
2017,06,24,09,18,21.50
2017,06,24,09,19,21.60
2017,06,24,09,20,21.60
2017,06,24,09,21,21.60
2017,06,24,09,22,21.60
2017,06,24,09,23,21.60
2017,06,24,09,24,21.60
2017,06,24,09,25,21.70
2017,06,24,09,26,21.70
2017,06,24,09,27,21.70
2017,06,24,09,28,21.80
2017,06,24,09,29,21.80
2017,06,24,09,30,21.90
2017,06,24,09,31,21.90
2017,06,24,09,32,21.90
2017,06,24,09,33,22.00
2017,06,24,09,34,22.10
2017,06,24,09,35,22.10
2017,06,24,09,36,22.20
2017,06,24,09,37,22.20
2017,06,24,09,38,22.30
2017,06,24,09,39,22.30
2017,06,24,09,40,22.30
2017,06,24,09,41,22.30
2017,06,24,09,42,22.30
2017,06,24,09,43,22.30
2017,06,24,09,44,22.30
2017,06,24,09,45,22.30
2017,06,24,09,46,22.30
2017,06,24,09,47,22.30
2017,06,24,09,48,22.30
2017,06,24,09,49,22.40
2017,06,24,09,50,22.40
2017,06,24,09,51,22.40
2017,06,24,09,52,22.50
2017,06,24,09,53,22.60
2017,06,24,09,54,22.60
2017,06,24,09,55,22.60
2017,06,24,09,56,22.60
2017,06,24,09,57,22.70
2017,06,24,09,58,22.70
2017,06,24,09,59,22.70
2017,06,24,10,00,22.80
2017,06,24,10,01,22.80
2017,06,24,10,02,22.90
2017,06,24,10,03,22.90
2017,06,24,10,04,22.90
2017,06,24,10,05,23.00
2017,06,24,10,06,23.00
2017,06,24,10,07,23.10
2017,06,24,10,08,23.10
2017,06,24,10,09,23.20
2017,06,24,10,10,23.20
2017,06,24,10,11,23.30
2017,06,24,10,12,23.30
2017,06,24,10,13,23.40
2017,06,24,10,14,23.40
2017,06,24,10,15,23.40
2017,06,24,10,16,23.50
2017,06,24,10,17,23.50
2017,06,24,10,18,23.60
2017,06,24,10,19,23.60
2017,06,24,10,20,23.60
2017,06,24,10,21,23.60
2017,06,24,10,22,23.60
2017,06,24,10,23,23.70
2017,06,24,10,24,23.70
2017,06,24,10,25,23.80
2017,06,24,10,26,23.80
2017,06,24,10,27,23.90
2017,06,24,10,28,23.90
2017,06,24,10,29,24.00
2017,06,24,10,30,24.10
2017,06,24,10,31,24.10
2017,06,24,10,32,24.10
2017,06,24,10,33,24.20
2017,06,24,10,34,24.20
2017,06,24,10,35,24.30
2017,06,24,10,36,24.30
2017,06,24,10,37,24.30
2017,06,24,10,38,24.30
2017,06,24,10,39,24.30
2017,06,24,10,40,24.20
2017,06,24,10,41,24.20
2017,06,24,10,42,24.20
2017,06,24,10,43,24.30
2017,06,24,10,44,24.30
2017,06,24,10,45,24.30
2017,06,24,10,46,24.40
2017,06,24,10,47,24.40
2017,06,24,10,48,24.40
2017,06,24,10,49,24.50
2017,06,24,10,50,24.50
2017,06,24,10,51,24.50
2017,06,24,10,52,24.50
2017,06,24,10,53,24.50
2017,06,24,10,54,24.50
2017,06,24,10,55,24.50
2017,06,24,10,56,24.60
2017,06,24,10,57,24.60
2017,06,24,10,58,24.60
2017,06,24,10,59,24.60
2017,06,24,11,00,24.70
2017,06,24,11,01,24.70
2017,06,24,11,02,24.80
2017,06,24,11,03,24.80
2017,06,24,11,04,24.80
2017,06,24,11,05,24.90
2017,06,24,11,06,24.90
2017,06,24,11,07,24.90
2017,06,24,11,08,25.00
2017,06,24,11,09,25.00
2017,06,24,11,10,25.10
2017,06,24,11,11,25.10
2017,06,24,11,12,25.10
2017,06,24,11,13,25.10
2017,06,24,11,14,25.10
2017,06,24,11,15,25.10
2017,06,24,11,16,25.10
2017,06,24,11,17,25.10
2017,06,24,11,18,25.10
2017,06,24,11,19,25.10
2017,06,24,11,20,25.20
2017,06,24,11,21,25.20
2017,06,24,11,22,25.20
2017,06,24,11,23,25.10
2017,06,24,11,24,25.00
2017,06,24,11,25,25.00
2017,06,24,11,26,24.90
2017,06,24,11,27,24.90
2017,06,24,11,28,24.90
2017,06,24,11,29,24.90
2017,06,24,11,30,24.90
2017,06,24,11,31,25.00
2017,06,24,11,32,25.00
2017,06,24,11,33,25.10
2017,06,24,11,34,25.10
2017,06,24,11,35,25.20
2017,06,24,11,36,25.20
2017,06,24,11,37,25.30
2017,06,24,11,38,25.40
2017,06,24,11,39,25.40
2017,06,24,11,40,25.50
2017,06,24,11,41,25.50
2017,06,24,11,42,25.60
2017,06,24,11,43,25.60
2017,06,24,11,44,25.60
2017,06,24,11,45,25.50
2017,06,24,11,46,25.40
2017,06,24,11,47,25.40
2017,06,24,11,48,25.40
2017,06,24,11,49,25.30
2017,06,24,11,50,25.40
2017,06,24,11,51,25.40
2017,06,24,11,52,25.40
2017,06,24,11,53,25.40
2017,06,24,11,54,25.40
2017,06,24,11,55,25.40
2017,06,24,11,56,25.50
2017,06,24,11,57,25.50
2017,06,24,11,58,25.50
2017,06,24,11,59,25.50
2017,06,24,12,00,25.50
2017,06,24,12,01,25.40
2017,06,24,12,02,25.40
2017,06,24,12,03,25.40
2017,06,24,12,04,25.50
2017,06,24,12,05,25.50
2017,06,24,12,06,25.60
2017,06,24,12,07,25.60
2017,06,24,12,08,25.60
2017,06,24,12,09,25.50
2017,06,24,12,10,25.50
2017,06,24,12,11,25.50
2017,06,24,12,12,25.50
2017,06,24,12,13,25.50
2017,06,24,12,14,25.40
2017,06,24,12,15,25.40
2017,06,24,12,16,25.40
2017,06,24,12,17,25.40
2017,06,24,12,18,25.40
2017,06,24,12,19,25.40
2017,06,24,12,20,25.40
2017,06,24,12,21,25.50
2017,06,24,12,22,25.50
2017,06,24,12,23,25.60
2017,06,24,12,24,25.60
2017,06,24,12,25,25.70
2017,06,24,12,26,25.70
2017,06,24,12,27,25.80
2017,06,24,12,28,25.90
2017,06,24,12,29,25.90
2017,06,24,12,30,26.00
2017,06,24,12,31,26.10
2017,06,24,12,32,26.20
2017,06,24,12,33,26.20
2017,06,24,12,34,26.30
2017,06,24,12,35,26.40
2017,06,24,12,36,26.40
2017,06,24,12,37,26.50
2017,06,24,12,38,26.50
2017,06,24,12,39,26.50
2017,06,24,12,40,26.40
2017,06,24,12,41,26.30
2017,06,24,12,42,26.30
2017,06,24,12,43,26.30
2017,06,24,12,44,26.30
2017,06,24,12,45,26.40
2017,06,24,12,46,26.40
2017,06,24,12,47,26.40
2017,06,24,12,48,26.40
2017,06,24,12,49,26.50
2017,06,24,12,50,26.50
2017,06,24,12,51,26.60
2017,06,24,12,52,26.60
2017,06,24,12,53,26.70
2017,06,24,12,54,26.80
2017,06,24,12,55,26.90
2017,06,24,12,56,27.00
2017,06,24,12,57,27.00
2017,06,24,12,58,27.10
2017,06,24,12,59,27.20
2017,06,24,13,00,27.20
2017,06,24,13,01,27.30
2017,06,24,13,02,27.30
2017,06,24,13,03,27.30
2017,06,24,13,04,27.30
2017,06,24,13,05,27.30
2017,06,24,13,06,27.30
2017,06,24,13,07,27.30
2017,06,24,13,08,27.30
2017,06,24,13,09,27.30
2017,06,24,13,10,27.40
2017,06,24,13,11,27.40
2017,06,24,13,12,27.40
2017,06,24,13,13,27.40
2017,06,24,13,14,27.40
2017,06,24,13,15,27.40
2017,06,24,13,16,27.40
2017,06,24,13,17,27.40
2017,06,24,13,18,27.40
2017,06,24,13,19,27.40
2017,06,24,13,20,27.40
2017,06,24,13,21,27.30
2017,06,24,13,22,27.30
2017,06,24,13,23,27.20
2017,06,24,13,24,27.20
2017,06,24,13,25,27.10
2017,06,24,13,26,27.10
2017,06,24,13,27,27.10
2017,06,24,13,28,27.10
2017,06,24,13,29,27.10
2017,06,24,13,30,27.10
2017,06,24,13,31,27.10
2017,06,24,13,32,27.10
2017,06,24,13,33,27.20
2017,06,24,13,34,27.20
2017,06,24,13,35,27.20
2017,06,24,13,36,27.30
2017,06,24,13,37,27.30
2017,06,24,13,38,27.30
2017,06,24,13,39,27.40
2017,06,24,13,40,27.40
2017,06,24,13,41,27.40
2017,06,24,13,42,27.50
2017,06,24,13,43,27.50
2017,06,24,13,44,27.60
2017,06,24,13,45,27.70
2017,06,24,13,46,27.70
2017,06,24,13,47,27.80
2017,06,24,13,48,27.90
2017,06,24,13,49,27.90
2017,06,24,13,50,27.90
2017,06,24,13,51,27.90
2017,06,24,13,52,28.00
2017,06,24,13,53,28.00
2017,06,24,13,54,28.00
2017,06,24,13,55,28.10
2017,06,24,13,56,28.10
2017,06,24,13,57,28.10
2017,06,24,13,58,28.10
2017,06,24,13,59,28.10
2017,06,24,14,00,28.10
2017,06,24,14,01,28.20
2017,06,24,14,02,28.20
2017,06,24,14,03,28.20
2017,06,24,14,04,28.30
2017,06,24,14,05,28.40
2017,06,24,14,06,28.40
2017,06,24,14,07,28.40
2017,06,24,14,08,28.40
2017,06,24,14,09,28.40
2017,06,24,14,10,28.40
2017,06,24,14,11,28.40
2017,06,24,14,12,28.40
2017,06,24,14,13,28.40
2017,06,24,14,14,28.50
2017,06,24,14,15,28.60
2017,06,24,14,16,28.60
2017,06,24,14,17,28.70
2017,06,24,14,18,28.80
2017,06,24,14,19,28.80
2017,06,24,14,20,28.90
2017,06,24,14,21,29.00
2017,06,24,14,22,29.10
2017,06,24,14,23,29.10
2017,06,24,14,24,29.10
2017,06,24,14,25,29.10
2017,06,24,14,26,29.10
2017,06,24,14,27,29.00
2017,06,24,14,28,28.90
2017,06,24,14,29,28.90
2017,06,24,14,30,28.80
2017,06,24,14,31,28.80
2017,06,24,14,32,28.80
2017,06,24,14,33,28.90
2017,06,24,14,34,28.90
2017,06,24,14,35,29.00
2017,06,24,14,36,29.00
2017,06,24,14,37,29.10
2017,06,24,14,38,29.00
2017,06,24,14,39,29.00
2017,06,24,14,40,28.90
2017,06,24,14,41,28.90
2017,06,24,14,42,29.00
2017,06,24,14,43,29.00
2017,06,24,14,44,29.10
2017,06,24,14,45,29.10
2017,06,24,14,46,29.20
2017,06,24,14,47,29.20
2017,06,24,14,48,29.20
2017,06,24,14,49,29.30
2017,06,24,14,50,29.30
2017,06,24,14,51,29.40
2017,06,24,14,52,29.50
2017,06,24,14,53,29.50
2017,06,24,14,54,29.50
2017,06,24,14,55,29.60
2017,06,24,14,56,29.60
2017,06,24,14,57,29.70
2017,06,24,14,58,29.80
2017,06,24,14,59,29.80
2017,06,24,15,00,29.80
2017,06,24,15,01,29.90
2017,06,24,15,02,29.90
2017,06,24,15,03,29.90
2017,06,24,15,04,29.90
2017,06,24,15,05,29.90
2017,06,24,15,06,29.90
2017,06,24,15,07,29.80
2017,06,24,15,08,29.80
2017,06,24,15,09,29.80
2017,06,24,15,10,29.80
2017,06,24,15,11,29.80
2017,06,24,15,12,29.70
2017,06,24,15,13,29.70
2017,06,24,15,14,29.60
2017,06,24,15,15,29.60
2017,06,24,15,16,29.50
2017,06,24,15,17,29.50
2017,06,24,15,18,29.50
2017,06,24,15,19,29.50
2017,06,24,15,20,29.50
2017,06,24,15,21,29.40
2017,06,24,15,22,29.30
2017,06,24,15,23,29.30
2017,06,24,15,24,29.30
2017,06,24,15,25,29.30
2017,06,24,15,26,29.30
2017,06,24,15,27,29.30
2017,06,24,15,28,29.30
2017,06,24,15,29,29.30
2017,06,24,15,30,29.40
2017,06,24,15,31,29.50
2017,06,24,15,32,29.50
2017,06,24,15,33,29.60
2017,06,24,15,34,29.70
2017,06,24,15,35,29.70
2017,06,24,15,36,29.80
2017,06,24,15,37,29.80
2017,06,24,15,38,29.90
2017,06,24,15,39,29.90
2017,06,24,15,40,29.90
2017,06,24,15,41,30.00
2017,06,24,15,42,30.00
2017,06,24,15,43,30.00
2017,06,24,15,44,30.00
2017,06,24,15,45,30.00
2017,06,24,15,46,30.00
2017,06,24,15,47,30.10
2017,06,24,15,48,30.20
2017,06,24,15,49,30.20
2017,06,24,15,50,30.30
2017,06,24,15,51,30.30
2017,06,24,15,52,30.30
2017,06,24,15,53,30.40
2017,06,24,15,54,30.40
2017,06,24,15,55,30.40
2017,06,24,15,56,30.50
2017,06,24,15,57,30.50
2017,06,24,15,58,30.50
2017,06,24,15,59,30.60
2017,06,24,16,00,30.60
2017,06,24,16,01,30.60
2017,06,24,16,02,30.60
2017,06,24,16,03,30.60
2017,06,24,16,04,30.60
2017,06,24,16,05,30.60
2017,06,24,16,06,30.60
2017,06,24,16,07,30.60
2017,06,24,16,08,30.60
2017,06,24,16,09,30.60
2017,06,24,16,10,30.60
2017,06,24,16,11,30.60
2017,06,24,16,12,30.60
2017,06,24,16,13,30.70
2017,06,24,16,14,30.70
2017,06,24,16,15,30.70
2017,06,24,16,16,30.70
2017,06,24,16,17,30.70
2017,06,24,16,18,30.60
2017,06,24,16,19,30.60
2017,06,24,16,20,30.60
2017,06,24,16,21,30.60
2017,06,24,16,22,30.60
2017,06,24,16,23,30.70
2017,06,24,16,24,30.70
2017,06,24,16,25,30.80
2017,06,24,16,26,30.80
2017,06,24,16,27,30.80
2017,06,24,16,28,30.80
2017,06,24,16,29,30.80
2017,06,24,16,30,30.80
2017,06,24,16,31,30.80
2017,06,24,16,32,30.80
2017,06,24,16,33,30.80
2017,06,24,16,34,30.70
2017,06,24,16,35,30.70
2017,06,24,16,36,30.60
2017,06,24,16,37,30.60
2017,06,24,16,38,30.60
2017,06,24,16,39,30.60
2017,06,24,16,40,30.60
2017,06,24,16,41,30.60
2017,06,24,16,42,30.60
2017,06,24,16,43,30.50
2017,06,24,16,44,30.50
2017,06,24,16,45,30.50
2017,06,24,16,46,30.40
2017,06,24,16,47,30.40
2017,06,24,16,48,30.30
2017,06,24,16,49,30.30
2017,06,24,16,50,30.30
2017,06,24,16,51,30.30
2017,06,24,16,52,30.30
2017,06,24,16,53,30.30
2017,06,24,16,54,30.40
2017,06,24,16,55,30.40
2017,06,24,16,56,30.50
2017,06,24,16,57,30.60
2017,06,24,16,58,30.60
2017,06,24,16,59,30.70
2017,06,24,17,00,30.80
2017,06,24,17,01,30.80
2017,06,24,17,02,30.90
2017,06,24,17,03,30.90
2017,06,24,17,04,30.90
2017,06,24,17,05,31.00
2017,06,24,17,06,30.90
2017,06,24,17,07,30.90
2017,06,24,17,08,30.80
2017,06,24,17,09,30.80
2017,06,24,17,10,30.80
2017,06,24,17,11,30.80
2017,06,24,17,12,30.80
2017,06,24,17,13,30.90
2017,06,24,17,14,30.90
2017,06,24,17,15,31.00
2017,06,24,17,16,31.10
2017,06,24,17,17,31.10
2017,06,24,17,18,31.10
2017,06,24,17,19,31.10